owner,sensor,date,latitude,longitude,vertical_datum,wind_speed,wind_to_direction,wind_speed_of_gust,qcFlag 
TABS,ioos:station:wmo:42044:1,2003-02-01T00:09:00Z,26.1914,-97.0507,0.0,1.210165278,312.6557678,2.63,'11111222,11111222,11111222' 
TABS,ioos:station:wmo:42044:1,2003-02-01T00:39:00Z,26.1914,-97.0507,0.0,0.62,180.0002105,1.85,'11111222,11111222,11111222' 
TABS,ioos:station:wmo:42044:1,2003-02-01T01:09:00Z,26.1914,-97.0507,0.0,1.01,258.5788404,3.19,'11111222,11111222,11111222' 
TABS,ioos:station:wmo:42044:1,2003-02-01T01:39:00Z,26.1914,-97.0507,0.0,1.760284068,276.1963989,2.94,'11111222,11111222,11111222' 
TABS,ioos:station:wmo:42044:1,2003-02-01T02:09:00Z,26.1914,-97.0507,0.0,1.442012483,288.1836106,2.32,'11111222,11111222,11111222' 
TABS,ioos:station:wmo:42044:1,2003-02-01T02:39:00Z,26.1914,-97.0507,0.0,0.31144823,227.6026613,1.22,'11111222,11111222,11111222' 
TABS,ioos:station:wmo:42044:1,2003-02-01T03:09:00Z,26.1914,-97.0507,0.0,1.052330746,273.8140659,1.96,'11111222,11111222,11111222' 
TABS,ioos:station:wmo:42044:1,2003-02-01T03:39:00Z,26.1914,-97.0507,0.0,3.148412298,280.0606663,4.22,'11111222,11111222,11111222' 
TABS,ioos:station:wmo:42044:1,2003-02-01T04:09:00Z,26.1914,-97.0507,0.0,3.520568136,276.1963989,4.78,'11111222,11111222,11111222' 
TABS,ioos:station:wmo:42044:1,2003-02-01T04:39:00Z,26.1914,-97.0507,0.0,2.408588798,278.8365705,3.41,'11111222,11111222,11111222' 
TABS,ioos:station:wmo:42044:1,2003-02-01T05:09:00Z,26.1914,-97.0507,0.0,2.793313445,280.1030134,3.72,'11111222,11111222,11111222' 
TABS,ioos:station:wmo:42044:1,2003-02-01T05:39:00Z,26.1914,-97.0507,0.0,2.870052264,274.7967877,3.79,'11111222,11111222,11111222' 
TABS,ioos:station:wmo:42044:1,2003-02-01T06:09:00Z,26.1914,-97.0507,0.0,2.821435805,271.827964,4.54,'11111222,11111222,11111222' 
TABS,ioos:station:wmo:42044:1,2003-02-01T07:09:00Z,26.1914,-97.0507,0.0,1.564161117,262.2843445,2.34,'11111222,11111222,11111222' 
TABS,ioos:station:wmo:42044:1,2003-02-01T07:39:00Z,26.1914,-97.0507,0.0,2.610938529,277.2610936,3.56,'11111222,11111222,11111222' 
TABS,ioos:station:wmo:42044:1,2003-02-01T08:09:00Z,26.1914,-97.0507,0.0,2.611053427,275.2738836,3.36,'11111222,11111222,11111222' 
TABS,ioos:station:wmo:42044:1,2003-02-01T08:39:00Z,26.1914,-97.0507,0.0,2.256213642,276.8730139,3.32,'11111222,11111222,11111222' 
TABS,ioos:station:wmo:42044:1,2003-02-01T09:09:00Z,26.1914,-97.0507,0.0,2.233942703,292.08712,3.12,'11111222,11111222,11111222' 
TABS,ioos:station:wmo:42044:1,2003-02-01T09:39:00Z,26.1914,-97.0507,0.0,2.427694379,312.4958498,3.6,'11111222,11111222,11111222' 
TABS,ioos:station:wmo:42044:1,2003-02-01T10:09:00Z,26.1914,-97.0507,0.0,2.361037907,305.1708624,3.31,'11111222,11111222,11111222' 
TABS,ioos:station:wmo:42044:1,2003-02-01T10:39:00Z,26.1914,-97.0507,0.0,1.838477631,284.4897287,3.19,'11111222,11111222,11111222' 
TABS,ioos:station:wmo:42044:1,2003-02-01T11:09:00Z,26.1914,-97.0507,0.0,0.970463807,296.3009557,2.3,'11111222,11111222,11111222' 
TABS,ioos:station:wmo:42044:1,2003-02-01T11:39:00Z,26.1914,-97.0507,0.0,0.666108099,234.1624308,1.78,'11111222,11111222,11111222' 
TABS,ioos:station:wmo:42044:1,2003-02-01T12:09:00Z,26.1914,-97.0507,0.0,0.684105255,195.2552935,1.43,'11111222,11111222,11111222' 
TABS,ioos:station:wmo:42044:1,2003-02-01T12:39:00Z,26.1914,-97.0507,0.0,1.101135777,235.7327447,2.08,'11111222,11111222,11111222' 
TABS,ioos:station:wmo:42044:1,2003-02-01T13:09:00Z,26.1914,-97.0507,0.0,1.387731963,227.9208199,2.33,'11111222,11111222,11111222' 
TABS,ioos:station:wmo:42044:1,2003-02-01T13:39:00Z,26.1914,-97.0507,0.0,1.400357097,204.9181747,2.29,'11111222,11111222,11111222' 
TABS,ioos:station:wmo:42044:1,2003-02-01T14:09:00Z,26.1914,-97.0507,0.0,1.70082333,221.1860393,2.42,'11111222,11111222,11111222' 
TABS,ioos:station:wmo:42044:1,2003-02-01T14:39:00Z,26.1914,-97.0507,0.0,3.390058997,254.0778568,4.64,'11111222,11111222,11111222' 
TABS,ioos:station:wmo:42044:1,2003-02-01T15:09:00Z,26.1914,-97.0507,0.0,2.869372754,259.3558371,3.72,'11111222,11111222,11111222' 
TABS,ioos:station:wmo:42044:1,2003-02-01T15:39:00Z,26.1914,-97.0507,0.0,2.528003165,233.039531,3.57,'11111222,11111222,11111222' 
TABS,ioos:station:wmo:42044:1,2003-02-01T16:09:00Z,26.1914,-97.0507,0.0,2.141121202,261.9456044,2.96,'11111222,11111222,11111222' 
TABS,ioos:station:wmo:42044:1,2003-02-01T16:39:00Z,26.1914,-97.0507,0.0,2.18013761,264.4724728,2.98,'11111222,11111222,11111222' 
TABS,ioos:station:wmo:42044:1,2003-02-01T17:09:00Z,26.1914,-97.0507,0.0,1.929248558,289.3740945,2.84,'11111222,11111222,11111222' 
TABS,ioos:station:wmo:42044:1,2003-02-01T17:39:00Z,26.1914,-97.0507,0.0,1.730462366,276.303613,2.85,'11111222,11111222,11111222' 
TABS,ioos:station:wmo:42044:1,2003-02-01T18:09:00Z,26.1914,-97.0507,0.0,2.069396047,246.6560436,2.74,'11111222,11111222,11111222' 
TABS,ioos:station:wmo:42044:1,2003-02-01T18:39:00Z,26.1914,-97.0507,0.0,2.04599609,198.523672,2.75,'11111222,11111222,11111222' 
TABS,ioos:station:wmo:42044:1,2003-02-01T19:09:00Z,26.1914,-97.0507,0.0,2.841918366,275.2491752,3.55,'11111222,11111222,11111222' 
TABS,ioos:station:wmo:42044:1,2003-02-01T19:39:00Z,26.1914,-97.0507,0.0,2.581259383,300.2403888,3.45,'11111222,11111222,11111222' 
TABS,ioos:station:wmo:42044:1,2003-02-01T20:09:00Z,26.1914,-97.0507,0.0,2.288252608,307.7211701,3.08,'11111222,11111222,11111222' 
TABS,ioos:station:wmo:42044:1,2003-02-01T20:39:00Z,26.1914,-97.0507,0.0,2.47697396,299.7735026,3.25,'11111222,11111222,11111222' 
TABS,ioos:station:wmo:42044:1,2003-02-01T21:09:00Z,26.1914,-97.0507,0.0,2.571633722,302.4540285,3.58,'11111222,11111222,11111222' 
TABS,ioos:station:wmo:42044:1,2003-02-01T21:39:00Z,26.1914,-97.0507,0.0,2.096878633,287.4843864,2.8,'11111222,11111222,11111222' 
TABS,ioos:station:wmo:42044:1,2003-02-01T22:09:00Z,26.1914,-97.0507,0.0,0.95131488,230.1174081,1.92,'11111222,11111222,11111222' 
TABS,ioos:station:wmo:42044:1,2003-02-01T22:39:00Z,26.1914,-97.0507,0.0,1.259920632,137.5736691,2.26,'11111222,11111222,11111222' 
TABS,ioos:station:wmo:42044:1,2003-02-01T23:09:00Z,26.1914,-97.0507,0.0,1.076289924,138.0130961,2.18,'11111222,11111222,11111222' 
TABS,ioos:station:wmo:42044:1,2003-02-01T23:39:00Z,26.1914,-97.0507,0.0,0.427200187,200.5562076,1.59,'11111222,11111222,11111222' 
TABS,ioos:station:wmo:42044:1,2003-02-02T00:09:00Z,26.1914,-97.0507,0.0,0.538237866,215.1665643,1.39,'11111222,11111222,11111222' 
TABS,ioos:station:wmo:42044:1,2003-02-02T00:39:00Z,26.1914,-97.0507,0.0,0.344383507,244.1790684,1.21,'11111222,11111222,11111222' 
TABS,ioos:station:wmo:42044:1,2003-02-02T01:09:00Z,26.1914,-97.0507,0.0,0.355105618,279.7275558,1.76,'11111222,11111222,11111222' 
TABS,ioos:station:wmo:42044:1,2003-02-02T01:39:00Z,26.1914,-97.0507,0.0,0.810246876,215.455602,1.76,'11111222,11111222,11111222' 
TABS,ioos:station:wmo:42044:1,2003-02-02T02:09:00Z,26.1914,-97.0507,0.0,1.33454112,162.1083752,2.28,'11111222,11111222,11111222' 
TABS,ioos:station:wmo:42044:1,2003-02-02T02:39:00Z,26.1914,-97.0507,0.0,3.637856512,73.05900347,4.78,'11111222,11111222,11111222' 
TABS,ioos:station:wmo:42044:1,2003-02-02T03:09:00Z,26.1914,-97.0507,0.0,3.558159637,76.51014055,4.52,'11111222,11111222,11111222' 
TABS,ioos:station:wmo:42044:1,2003-02-02T03:39:00Z,26.1914,-97.0507,0.0,3.457195395,64.1016502,5.43,'11111222,11111222,11111222' 
TABS,ioos:station:wmo:42044:1,2003-02-02T04:09:00Z,26.1914,-97.0507,0.0,3.452491854,63.50880714,5.13,'11111222,11111222,11111222' 
TABS,ioos:station:wmo:42044:1,2003-02-02T04:39:00Z,26.1914,-97.0507,0.0,2.69235956,48.61355661,5.47,'11111222,11111222,11111222' 
TABS,ioos:station:wmo:42044:1,2003-02-02T05:09:00Z,26.1914,-97.0507,0.0,2.854767942,61.54936383,5.35,'11111222,11111222,11111222' 
TABS,ioos:station:wmo:42044:1,2003-02-02T05:39:00Z,26.1914,-97.0507,0.0,2.860244745,65.85409358,6.14,'11111222,11111222,11111222' 
TABS,ioos:station:wmo:42044:1,2003-02-02T06:09:00Z,26.1914,-97.0507,0.0,2.350914716,201.9825973,5.07,'11111222,11111222,11111222' 
TABS,ioos:station:wmo:42044:1,2003-02-02T06:39:00Z,26.1914,-97.0507,0.0,2.468562335,66.86199561,6.48,'11111222,11111222,11111222' 
TABS,ioos:station:wmo:42044:1,2003-02-02T07:09:00Z,26.1914,-97.0507,0.0,3.482068351,88.02464969,7.36,'11111222,11111222,11111222' 
TABS,ioos:station:wmo:42044:1,2003-02-02T07:39:00Z,26.1914,-97.0507,0.0,2.996030707,86.36360741,6.03,'11111222,11111222,11111222' 
TABS,ioos:station:wmo:42044:1,2003-02-02T08:09:00Z,26.1914,-97.0507,0.0,0.745184541,49.89876531,5.83,'11111222,11111222,11111222' 
TABS,ioos:station:wmo:42044:1,2003-02-02T08:39:00Z,26.1914,-97.0507,0.0,2.458393785,60.51493751,5.88,'11111222,11111222,11111222' 
TABS,ioos:station:wmo:42044:1,2003-02-02T09:09:00Z,26.1914,-97.0507,0.0,0.412310563,50.90581161,5.87,'11111222,11111222,11111222' 
TABS,ioos:station:wmo:42044:1,2003-02-02T09:39:00Z,26.1914,-97.0507,0.0,2.001449475,74.64406558,5.08,'11111222,11111222,11111222' 
TABS,ioos:station:wmo:42044:1,2003-02-02T10:09:00Z,26.1914,-97.0507,0.0,2.47018218,89.30371477,6.13,'11111222,11111222,11111222' 
TABS,ioos:station:wmo:42044:1,2003-02-02T10:39:00Z,26.1914,-97.0507,0.0,3.149412644,112.0044754,5.72,'11111222,11111222,11111222' 
TABS,ioos:station:wmo:42044:1,2003-02-02T11:09:00Z,26.1914,-97.0507,0.0,3.452448407,102.5471998,5.33,'11111222,11111222,11111222' 
TABS,ioos:station:wmo:42044:1,2003-02-02T11:39:00Z,26.1914,-97.0507,0.0,3.421184006,88.49214685,5.39,'11111222,11111222,11111222' 
TABS,ioos:station:wmo:42044:1,2003-02-02T12:09:00Z,26.1914,-97.0507,0.0,4.04499691,110.8548302,6.77,'11111222,11111222,11111222' 
TABS,ioos:station:wmo:42044:1,2003-02-02T12:39:00Z,26.1914,-97.0507,0.0,3.965576881,108.0698091,6.32,'11111222,11111222,11111222' 
TABS,ioos:station:wmo:42044:1,2003-02-02T13:09:00Z,26.1914,-97.0507,0.0,4.050876448,99.09067658,6.18,'11111222,11111222,11111222' 
TABS,ioos:station:wmo:42044:1,2003-02-02T13:39:00Z,26.1914,-97.0507,0.0,4.154864619,104.6386652,6.0,'11111222,11111222,11111222' 
TABS,ioos:station:wmo:42044:1,2003-02-02T14:09:00Z,26.1914,-97.0507,0.0,4.931379117,109.7948783,7.33,'11111222,11111222,11111222' 
TABS,ioos:station:wmo:42044:1,2003-02-02T14:39:00Z,26.1914,-97.0507,0.0,4.736760496,103.8019349,6.91,'11111222,11111222,11111222' 
TABS,ioos:station:wmo:42044:1,2003-02-02T15:09:00Z,26.1914,-97.0507,0.0,4.812005819,99.20824936,7.21,'11111222,11111222,11111222' 
TABS,ioos:station:wmo:42044:1,2003-02-02T15:39:00Z,26.1914,-97.0507,0.0,4.806079483,95.97197285,6.87,'11111222,11111222,11111222' 
TABS,ioos:station:wmo:42044:1,2003-02-02T16:09:00Z,26.1914,-97.0507,0.0,4.076039745,96.48030518,6.31,'11111222,11111222,11111222' 
TABS,ioos:station:wmo:42044:1,2003-02-02T16:39:00Z,26.1914,-97.0507,0.0,5.19878832,102.7802323,8.53,'11111222,11111222,11111222' 
TABS,ioos:station:wmo:42044:1,2003-02-02T17:09:00Z,26.1914,-97.0507,0.0,4.067394744,104.3782831,8.18,'11111222,11111222,11111222' 
TABS,ioos:station:wmo:42044:1,2003-02-02T17:39:00Z,26.1914,-97.0507,0.0,4.485554592,106.9810246,7.47,'11111222,11111222,11111222' 
TABS,ioos:station:wmo:42044:1,2003-02-02T18:09:00Z,26.1914,-97.0507,0.0,4.720169488,106.7461323,8.13,'11111222,11111222,11111222' 
TABS,ioos:station:wmo:42044:1,2003-02-02T18:39:00Z,26.1914,-97.0507,0.0,4.950161614,104.1489208,8.03,'11111222,11111222,11111222' 
TABS,ioos:station:wmo:42044:1,2003-02-02T19:09:00Z,26.1914,-97.0507,0.0,4.631684359,98.5678671,8.75,'11111222,11111222,11111222' 
TABS,ioos:station:wmo:42044:1,2003-02-02T19:39:00Z,26.1914,-97.0507,0.0,5.545637925,110.0364423,9.93,'11111222,11111222,11111222' 
TABS,ioos:station:wmo:42044:1,2003-02-02T20:09:00Z,26.1914,-97.0507,0.0,5.188333066,111.7197528,8.84,'11111222,11111222,11111222' 
TABS,ioos:station:wmo:42044:1,2003-02-02T20:39:00Z,26.1914,-97.0507,0.0,3.695794908,189.0292332,8.2,'11111222,11111222,11111222' 
TABS,ioos:station:wmo:42044:1,2003-02-02T21:09:00Z,26.1914,-97.0507,0.0,5.056530431,108.6861502,8.1,'11111222,11111222,11111222' 
TABS,ioos:station:wmo:42044:1,2003-02-02T21:39:00Z,26.1914,-97.0507,0.0,5.046999108,108.3635276,9.41,'11111222,11111222,11111222' 
TABS,ioos:station:wmo:42044:1,2003-02-02T22:09:00Z,26.1914,-97.0507,0.0,4.130375286,96.95336213,8.0,'11111222,11111222,11111222' 
TABS,ioos:station:wmo:42044:1,2003-02-02T22:39:00Z,26.1914,-97.0507,0.0,5.251218906,104.6717536,8.14,'11111222,11111222,11111222' 
TABS,ioos:station:wmo:42044:1,2003-02-02T23:09:00Z,26.1914,-97.0507,0.0,5.379079847,108.1995434,8.57,'11111222,11111222,11111222' 
TABS,ioos:station:wmo:42044:1,2003-02-02T23:39:00Z,26.1914,-97.0507,0.0,5.338464199,109.2499018,8.64,'11111222,11111222,11111222' 
TABS,ioos:station:wmo:42044:1,2003-02-03T00:09:00Z,26.1914,-97.0507,0.0,5.640008865,112.5186451,9.65,'11111222,11111222,11111222' 
TABS,ioos:station:wmo:42044:1,2003-02-03T00:39:00Z,26.1914,-97.0507,0.0,5.453998533,112.1919378,8.93,'11111222,11111222,11111222' 
TABS,ioos:station:wmo:42044:1,2003-02-03T01:09:00Z,26.1914,-97.0507,0.0,4.822706709,108.9988722,8.79,'11111222,11111222,11111222' 
TABS,ioos:station:wmo:42044:1,2003-02-03T01:39:00Z,26.1914,-97.0507,0.0,5.572162955,108.9555906,8.63,'11111222,11111222,11111222' 
TABS,ioos:station:wmo:42044:1,2003-02-03T02:09:00Z,26.1914,-97.0507,0.0,5.142781349,114.2230297,8.47,'11111222,11111222,11111222' 
TABS,ioos:station:wmo:42044:1,2003-02-03T02:39:00Z,26.1914,-97.0507,0.0,4.074469291,117.3200839,8.51,'11111222,11111222,11111222' 
TABS,ioos:station:wmo:42044:1,2003-02-03T03:09:00Z,26.1914,-97.0507,0.0,4.743216208,106.4103735,8.57,'11111222,11111222,11111222' 
TABS,ioos:station:wmo:42044:1,2003-02-03T03:39:00Z,26.1914,-97.0507,0.0,4.038341244,104.4839759,7.11,'11111222,11111222,11111222' 
TABS,ioos:station:wmo:42044:1,2003-02-03T04:09:00Z,26.1914,-97.0507,0.0,3.820078533,108.150748,8.49,'11111222,11111222,11111222' 
TABS,ioos:station:wmo:42044:1,2003-02-03T04:39:00Z,26.1914,-97.0507,0.0,4.172589124,121.1760485,8.55,'11111222,11111222,11111222' 
TABS,ioos:station:wmo:42044:1,2003-02-03T05:09:00Z,26.1914,-97.0507,0.0,3.462080299,122.496923,7.6,'11111222,11111222,11111222' 
TABS,ioos:station:wmo:42044:1,2003-02-03T05:39:00Z,26.1914,-97.0507,0.0,5.468400132,125.1726147,9.4,'11111222,11111222,11111222' 
TABS,ioos:station:wmo:42044:1,2003-02-03T06:09:00Z,26.1914,-97.0507,0.0,5.217710226,122.7157771,9.68,'11111222,11111222,11111222' 
TABS,ioos:station:wmo:42044:1,2003-02-03T06:39:00Z,26.1914,-97.0507,0.0,5.26157771,121.0014555,8.43,'11111222,11111222,11111222' 
TABS,ioos:station:wmo:42044:1,2003-02-03T07:09:00Z,26.1914,-97.0507,0.0,6.151894017,135.2637421,10.37,'11111222,11111222,11111222' 
TABS,ioos:station:wmo:42044:1,2003-02-03T07:39:00Z,26.1914,-97.0507,0.0,5.751565004,159.0128135,10.52,'11111222,11111222,11111222' 
TABS,ioos:station:wmo:42044:1,2003-02-03T08:09:00Z,26.1914,-97.0507,0.0,5.822310538,140.9255368,9.11,'11111222,11111222,11111222' 
TABS,ioos:station:wmo:42044:1,2003-02-03T08:39:00Z,26.1914,-97.0507,0.0,5.824645912,139.6657483,9.08,'11111222,11111222,11111222' 
TABS,ioos:station:wmo:42044:1,2003-02-03T09:09:00Z,26.1914,-97.0507,0.0,6.134468192,144.7557689,10.24,'11111222,11111222,11111222' 
TABS,ioos:station:wmo:42044:1,2003-02-03T09:39:00Z,26.1914,-97.0507,0.0,4.507737792,150.9333288,7.5,'11111222,11111222,11111222' 
TABS,ioos:station:wmo:42044:1,2003-02-03T10:09:00Z,26.1914,-97.0507,0.0,5.437692525,157.3966088,8.96,'11111222,11111222,11111222' 
TABS,ioos:station:wmo:42044:1,2003-02-03T10:39:00Z,26.1914,-97.0507,0.0,5.166013937,143.2634897,8.96,'11111222,11111222,11111222' 
TABS,ioos:station:wmo:42044:1,2003-02-03T11:09:00Z,26.1914,-97.0507,0.0,4.855450546,87.2845001,8.54,'11111222,11111222,11111222' 
TABS,ioos:station:wmo:42044:1,2003-02-03T11:39:00Z,26.1914,-97.0507,0.0,9.148693896,125.4797735,14.39,'11111222,11111222,11111222' 
TABS,ioos:station:wmo:42044:1,2003-02-03T12:09:00Z,26.1914,-97.0507,0.0,8.94840768,139.2601125,15.27,'11111222,11111222,11111222' 
TABS,ioos:station:wmo:42044:1,2003-02-03T12:39:00Z,26.1914,-97.0507,0.0,8.935463055,133.141015,15.23,'11111222,11111222,11111222' 
TABS,ioos:station:wmo:42044:1,2003-02-03T13:09:00Z,26.1914,-97.0507,0.0,3.140859755,193.8152035,8.5,'11111222,11111222,11111222' 
TABS,ioos:station:wmo:42044:1,2003-02-03T13:39:00Z,26.1914,-97.0507,0.0,4.590250538,167.4172774,9.77,'11111222,11111222,11111222' 
TABS,ioos:station:wmo:42044:1,2003-02-03T14:09:00Z,26.1914,-97.0507,0.0,5.749095581,159.6425077,10.14,'11111222,11111222,11111222' 
TABS,ioos:station:wmo:42044:1,2003-02-03T14:39:00Z,26.1914,-97.0507,0.0,5.453888521,150.5681305,10.29,'11111222,11111222,11111222' 
TABS,ioos:station:wmo:42044:1,2003-02-03T15:09:00Z,26.1914,-97.0507,0.0,4.991643016,157.7512388,9.06,'11111222,11111222,11111222' 
TABS,ioos:station:wmo:42044:1,2003-02-03T15:39:00Z,26.1914,-97.0507,0.0,5.611782248,157.9144616,9.99,'11111222,11111222,11111222' 
TABS,ioos:station:wmo:42044:1,2003-02-03T16:09:00Z,26.1914,-97.0507,0.0,6.314633798,155.5863499,10.94,'11111222,11111222,11111222' 
TABS,ioos:station:wmo:42044:1,2003-02-03T16:39:00Z,26.1914,-97.0507,0.0,5.967051198,154.5947201,9.43,'11111222,11111222,11111222' 
TABS,ioos:station:wmo:42044:1,2003-02-03T17:09:00Z,26.1914,-97.0507,0.0,6.770406192,156.3127395,10.62,'11111222,11111222,11111222' 
TABS,ioos:station:wmo:42044:1,2003-02-03T17:39:00Z,26.1914,-97.0507,0.0,6.199354805,160.3961682,10.5,'11111222,11111222,11111222' 
TABS,ioos:station:wmo:42044:1,2003-02-03T18:09:00Z,26.1914,-97.0507,0.0,6.283510166,153.8430127,9.96,'11111222,11111222,11111222' 
TABS,ioos:station:wmo:42044:1,2003-02-03T18:39:00Z,26.1914,-97.0507,0.0,5.804498256,151.27165,10.23,'11111222,11111222,11111222' 
TABS,ioos:station:wmo:42044:1,2003-02-03T19:09:00Z,26.1914,-97.0507,0.0,6.745050037,149.1385017,10.51,'11111222,11111222,11111222' 
TABS,ioos:station:wmo:42044:1,2003-02-03T19:39:00Z,26.1914,-97.0507,0.0,6.738916827,150.5823168,11.51,'11111222,11111222,11111222' 
TABS,ioos:station:wmo:42044:1,2003-02-03T20:09:00Z,26.1914,-97.0507,0.0,6.208461967,149.5113413,10.86,'11111222,11111222,11111222' 
TABS,ioos:station:wmo:42044:1,2003-02-03T20:39:00Z,26.1914,-97.0507,0.0,6.153251173,144.9930156,11.19,'11111222,11111222,11111222' 
TABS,ioos:station:wmo:42044:1,2003-02-03T21:09:00Z,26.1914,-97.0507,0.0,5.223839584,138.9588328,9.35,'11111222,11111222,11111222' 
TABS,ioos:station:wmo:42044:1,2003-02-03T21:39:00Z,26.1914,-97.0507,0.0,5.818083877,140.5099562,10.31,'11111222,11111222,11111222' 
TABS,ioos:station:wmo:42044:1,2003-02-03T22:09:00Z,26.1914,-97.0507,0.0,4.484161014,126.3846877,7.31,'11111222,11111222,11111222' 
TABS,ioos:station:wmo:42044:1,2003-02-03T22:39:00Z,26.1914,-97.0507,0.0,3.847661628,118.2305121,6.42,'11111222,11111222,11111222' 
TABS,ioos:station:wmo:42044:1,2003-02-03T23:09:00Z,26.1914,-97.0507,0.0,4.074432476,123.1833818,6.76,'11111222,11111222,11111222' 
TABS,ioos:station:wmo:42044:1,2003-02-03T23:39:00Z,26.1914,-97.0507,0.0,4.522388749,119.3995144,6.83,'11111222,11111222,11111222' 
TABS,ioos:station:wmo:42044:1,2003-02-04T00:09:00Z,26.1914,-97.0507,0.0,3.769774529,109.2043495,5.99,'11111222,11111222,11111222' 
TABS,ioos:station:wmo:42044:1,2003-02-04T00:39:00Z,26.1914,-97.0507,0.0,4.133594078,113.5265653,6.9,'11111222,11111222,11111222' 
TABS,ioos:station:wmo:42044:1,2003-02-04T01:09:00Z,26.1914,-97.0507,0.0,2.588146055,113.6931235,4.14,'11111222,11111222,11111222' 
TABS,ioos:station:wmo:42044:1,2003-02-04T01:39:00Z,26.1914,-97.0507,0.0,3.603359544,85.06428659,5.83,'11111222,11111222,11111222' 
TABS,ioos:station:wmo:42044:1,2003-02-04T02:09:00Z,26.1914,-97.0507,0.0,2.594166533,111.7197528,4.02,'11111222,11111222,11111222' 
TABS,ioos:station:wmo:42044:1,2003-02-04T02:39:00Z,26.1914,-97.0507,0.0,2.222993477,96.19828406,4.65,'11111222,11111222,11111222' 
TABS,ioos:station:wmo:42044:1,2003-02-04T03:09:00Z,26.1914,-97.0507,0.0,2.649679226,28.88630376,4.01,'11111222,11111222,11111222' 
TABS,ioos:station:wmo:42044:1,2003-02-04T03:39:00Z,26.1914,-97.0507,0.0,1.58492902,42.95428061,3.08,'11111222,11111222,11111222' 
TABS,ioos:station:wmo:42044:1,2003-02-04T04:09:00Z,26.1914,-97.0507,0.0,4.001699639,28.99869888,5.87,'11111222,11111222,11111222' 
TABS,ioos:station:wmo:42044:1,2003-02-04T04:39:00Z,26.1914,-97.0507,0.0,4.904253256,28.4982951,6.64,'11111222,11111222,11111222' 
TABS,ioos:station:wmo:42044:1,2003-02-04T05:09:00Z,26.1914,-97.0507,0.0,5.054305096,355.6880377,6.99,'11111222,11111222,11111222' 
TABS,ioos:station:wmo:42044:1,2003-02-04T05:39:00Z,26.1914,-97.0507,0.0,3.937118235,344.8340514,6.27,'11111222,11111222,11111222' 
TABS,ioos:station:wmo:42044:1,2003-02-04T06:09:00Z,26.1914,-97.0507,0.0,4.140458912,346.7355298,7.24,'11111222,11111222,11111222' 
TABS,ioos:station:wmo:42044:1,2003-02-04T06:39:00Z,26.1914,-97.0507,0.0,4.929462445,332.1871797,7.08,'11111222,11111222,11111222' 
TABS,ioos:station:wmo:42044:1,2003-02-04T07:09:00Z,26.1914,-97.0507,0.0,8.350359274,354.3643113,12.89,'11111222,11111222,11111222' 
TABS,ioos:station:wmo:42044:1,2003-02-04T07:39:00Z,26.1914,-97.0507,0.0,7.810672186,350.7907416,12.58,'11111222,11111222,11111222' 
TABS,ioos:station:wmo:42044:1,2003-02-04T08:09:00Z,26.1914,-97.0507,0.0,7.743545699,352.654529,14.15,'11111222,11111222,11111222' 
TABS,ioos:station:wmo:42044:1,2003-02-04T08:39:00Z,26.1914,-97.0507,0.0,8.607932388,350.5046616,13.45,'11111222,11111222,11111222' 
TABS,ioos:station:wmo:42044:1,2003-02-04T09:09:00Z,26.1914,-97.0507,0.0,7.733589076,5.341771441,13.77,'11111222,11111222,11111222' 
TABS,ioos:station:wmo:42044:1,2003-02-04T09:39:00Z,26.1914,-97.0507,0.0,7.295649389,39.49355336,12.86,'11111222,11111222,11111222' 
TABS,ioos:station:wmo:42044:1,2003-02-04T10:09:00Z,26.1914,-97.0507,0.0,8.935910698,4.364061001,15.76,'11111222,11111222,11111222' 
TABS,ioos:station:wmo:42044:1,2003-02-04T10:39:00Z,26.1914,-97.0507,0.0,8.600145348,359.6666791,13.86,'11111222,11144222,11111222' 
TABS,ioos:station:wmo:42044:1,2003-02-04T11:09:00Z,26.1914,-97.0507,0.0,8.623931818,356.7425752,14.46,'11111222,11111222,11111222' 
TABS,ioos:station:wmo:42044:1,2003-02-04T11:39:00Z,26.1914,-97.0507,0.0,9.231105026,353.9680561,13.23,'11111222,11111222,11111222' 
TABS,ioos:station:wmo:42044:1,2003-02-04T12:09:00Z,26.1914,-97.0507,0.0,9.510799125,354.6908362,14.14,'11111222,11111222,11111222' 
TABS,ioos:station:wmo:42044:1,2003-02-04T12:39:00Z,26.1914,-97.0507,0.0,9.73041623,356.2875616,15.53,'11111222,11111222,11111222' 
TABS,ioos:station:wmo:42044:1,2003-02-04T13:09:00Z,26.1914,-97.0507,0.0,7.513221679,348.794574,11.72,'11111222,11111222,11111222' 
TABS,ioos:station:wmo:42044:1,2003-02-04T13:39:00Z,26.1914,-97.0507,0.0,6.807062509,335.6185862,10.86,'11111222,11111222,11111222' 
TABS,ioos:station:wmo:42044:1,2003-02-04T14:09:00Z,26.1914,-97.0507,0.0,7.608974964,343.3510714,11.32,'11111222,11111222,11111222' 
TABS,ioos:station:wmo:42044:1,2003-02-04T14:39:00Z,26.1914,-97.0507,0.0,6.632797298,351.5032145,10.59,'11111222,11111222,11111222' 
TABS,ioos:station:wmo:42044:1,2003-02-04T15:09:00Z,26.1914,-97.0507,0.0,8.322403499,358.6227556,11.58,'11111222,11111222,11111222' 
TABS,ioos:station:wmo:42044:1,2003-02-04T15:39:00Z,26.1914,-97.0507,0.0,7.409453421,5.110195152,11.67,'11111222,11111222,11111222' 
TABS,ioos:station:wmo:42044:1,2003-02-04T16:09:00Z,26.1914,-97.0507,0.0,5.114147045,347.3494935,9.17,'11111222,11111222,11111222' 
TABS,ioos:station:wmo:42044:1,2003-02-04T16:39:00Z,26.1914,-97.0507,0.0,4.126402792,343.6729742,9.36,'11111222,11111222,11111222' 
TABS,ioos:station:wmo:42044:1,2003-02-04T17:09:00Z,26.1914,-97.0507,0.0,4.285650476,334.8698818,7.5,'11111222,11111222,11111222' 
TABS,ioos:station:wmo:42044:1,2003-02-04T17:39:00Z,26.1914,-97.0507,0.0,4.932767986,333.3828552,7.63,'11111222,11111222,11111222' 
TABS,ioos:station:wmo:42044:1,2003-02-04T18:09:00Z,26.1914,-97.0507,0.0,5.720034965,327.4211191,8.41,'11111222,11111222,11111222' 
TABS,ioos:station:wmo:42044:1,2003-02-04T18:39:00Z,26.1914,-97.0507,0.0,5.888853878,327.200335,8.52,'11111222,11111222,11111222' 
TABS,ioos:station:wmo:42044:1,2003-02-04T19:09:00Z,26.1914,-97.0507,0.0,5.802594247,335.0247109,8.91,'11111222,11111222,11111222' 